Starlink 5844

operational
NORAD ID: 57068 Int'l Des: 2023-088 Owner: SPXS Country: US Constellation: starlink
LEOCIRCULAR

Starlink 5844について

説明を読み込み中...

リアルタイム位置

3D地球を読み込み中...

次回通過

高度履歴

Altitude vs Time

uPlot chart will show altitude changes over time

軌道要素

1 57068U 23088W 25260.24605509 -.00000040 00000-0 12102-4 0 9998
2 57068 43.0058 329.5424 0001297 276.4655 83.6040 15.02533554124282
Epoch: Sep 17, 2025 • Age: 19 hours

現在のステータス

高度 559.2 km
速度 7.58 km/s
衛星直下点 -4.00°S, 51.65°W
打ち上げ日 Jun 22, 2023
運用期間 2.2 years
タイプ internet

技術仕様

分類 Payload
質量 305.00 kg
乾燥質量 290.00 kg
総質量 305.00 kg
長さ 0.20 m
直径 2.80 m
スパン 9.00 m
形状 Box + pan
製造者 SPXS
バスタイプ Starlink
フェーズステータス In Orbit
所有者/国 SPXS/US

大規模コンステレーション

Loading constellations...